This is the latest recevied weather packets stored in our database for station/object WD7OO. If no packets are shown the sender has not sent any weather packets the latest 10 day(s).
| Time | Temp. | Humidity | Pressure | Rain* | Wind** | Luminosity | Snow |
|---|---|---|---|---|---|---|---|
| 1777933547 | 23.33° C | 53% | 1000.6 hPa | 0 mm | - | 193 W/m² | - |
| 1777933244 | 23.33° C | 51% | 1000.5 hPa | 0 mm | - | 122 W/m² | - |
| 1777932942 | 23.89° C | 50% | 1000.4 hPa | 0 mm | - | 96 W/m² | - |
| 1777932638 | 24.44° C | 48% | 1000.4 hPa | 0 mm | - | 83 W/m² | - |
| 1777932335 | 25° C | 48% | 1000.3 hPa | 0 mm | - | 316 W/m² | - |
| 1777932032 | 23.89° C | 49% | 1000.4 hPa | 0 mm | - | 366 W/m² | - |
| 1777931728 | 24.44° C | 48% | 1000.4 hPa | 0 mm | - | 114 W/m² | - |
| 1777931426 | 25° C | 47% | 1000.5 hPa | 0 mm | - | 326 W/m² | - |
| 1777931122 | 25° C | 46% | 1000.5 hPa | 0 mm | - | 141 W/m² | - |
| 1777930818 | 24.44° C | 46% | 1000.4 hPa | 0 mm | - | 317 W/m² | - |
| 1777930515 | 24.44° C | 46% | 1000.5 hPa | 0 mm | - | 134 W/m² | - |
| 1777930212 | 23.89° C | 47% | 1000.4 hPa | 0 mm | - | 182 W/m² | - |
| 1777929908 | 23.89° C | 47% | 1000.4 hPa | 0 mm | - | 80 W/m² | - |
| 1777929606 | 23.89° C | 47% | 1000.5 hPa | 0 mm | - | 69 W/m² | - |
| 1777929302 | 25° C | 46% | 1000.2 hPa | 0 mm | - | 177 W/m² | - |
| 1777929000 | 24.44° C | 44% | 1000 hPa | 0 mm | - | 462 W/m² | - |
| 1777928696 | 24.44° C | 45% | 1000.5 hPa | 0 mm | - | 172 W/m² | - |
| 1777928393 | 24.44° C | 47% | 1000.3 hPa | 0 mm | - | 138 W/m² | - |
| 1777928090 | 24.44° C | 46% | 1000.5 hPa | 0 mm | - | 98 W/m² | - |
| 1777927789 | 25° C | 45% | 1000.3 hPa | 0 mm | - | 138 W/m² | - |
| 1777927487 | 25.56° C | 45% | 1000.3 hPa | 0 mm | - | 252 W/m² | - |
| 1777927185 | 25° C | 45% | 1000.4 hPa | 0 mm | - | 608 W/m² | - |
| 1777926883 | 25° C | 46% | 1000.5 hPa | 0 mm | - | 636 W/m² | - |
| 1777926579 | 25° C | 45% | 1000.3 hPa | 0 mm | - | 124 W/m² | - |
| 1777926275 | 25.56° C | 44% | 1000.2 hPa | 0 mm | - | 108 W/m² | - |
* Rain latest hour (hover to see other rain measurements)
** Current wind speed in m/s (hover to see current wind gust speed)